Location: Unspecified
(0.0000°N, 0.0000°E)
Time: 11:09:59
(UTC+00:00)

COSMOS-2414 - Pass Details

Date: 22 April 2024
Orbit: 908 x 965 km, 83.0° (Epoch: 25 May)

Event Time Altitude Azimuth Distance (km) Brightness Sun altitude
Rises 03:00:44 0° 141° (SE) 3,576 9.2 -43.2°
Reaches altitude 10° 03:06:39 10° 96° (E) 2,610 8.8 -41.7°
Maximum altitude 03:06:52 10° 94° (E) 2,608 8.8 -41.7°
Drops below altitude 10° 03:07:05 10° 91° (E) 2,608 8.8 -41.6°
Sets 03:12:54 0° 46° (NE) 3,531 9.6 -40.2°
